Location: Newark
(42.7133°N, 87.7910°W)
Time: 18:10:44
(UTC+00:00)

A-11 Canister half - Pass Details

Date: 27 September 2019
Orbit: 1527 x 1682 km, 47.3° (Epoch: 22 October)

Event Time Altitude Azimuth Distance (km) Brightness Sun altitude
Exits shadow 09:52:40 29° 269° (W) 2,534 9.6 -20.9°
Maximum altitude 09:58:07 72° 348° (NNW) 1,628 9.1 -20.0°
Drops below altitude 10° 10:07:48 10° 73° (ENE) 3,816 12.4 -18.3°
Sets 10:10:59 0° 76° (ENE) 4,824 13.4 -17.7°
